• In Russia
  • List of Countries
  • For 7 days
  • Water Temperature
  • Satellite Maps
  • Weather Map
  • Weather Widgets
  • user-avatar
    Login

    Hourly Weather Adelaide

    Today, 23 November, Thursday

    Time Temperature Precipitation Wind Pressure Humidity
    00:00 +24°C° 0.1 mm 2 mps 753 mmHg 64%
    01:00 +24°C° 0.3 mm 2 mps 752 mmHg 64%
    02:00 +23°C° 0.3 mm 2 mps 752 mmHg 65%
    03:00 +23°C° 0 mm 1 mps 752 mmHg 66%
    04:00 +23°C° 0 mm 1 mps 752 mmHg 66%
    05:00 +23°C° 0 mm 2 mps 753 mmHg 66%
    06:00 +23°C° 0 mm 2 mps 753 mmHg 65%
    07:00 +25°C° 0 mm 2 mps 753 mmHg 59%
    08:00 +27°C° 0 mm 1 mps 753 mmHg 52%
    09:00 +28°C° 0 mm 1 mps 753 mmHg 46%
    10:00 +29°C° 0.3 mm 2 mps 753 mmHg 44%
    11:00 +30°C° 0.3 mm 3 mps 753 mmHg 43%
    12:00 +30°C° 0.3 mm 4 mps 753 mmHg 41%
    13:00 +28°C° 0.7 mm 4 mps 752 mmHg 49%
    14:00 +27°C° 0.7 mm 4 mps 752 mmHg 57%
    15:00 +27°C° 0 mm 3 mps 753 mmHg 47%
    16:00 +25°C° 0.8 mm 3 mps 753 mmHg 54%
    17:00 +24°C° 0.8 mm 3 mps 753 mmHg 61%
    18:00 +21°C° 0.8 mm 3 mps 753 mmHg 69%
    19:00 +21°C° 0.2 mm 3 mps 754 mmHg 71%
    20:00 +21°C° 0.2 mm 2 mps 754 mmHg 73%
    21:00 +21°C° 0.2 mm 1 mps 754 mmHg 75%
    22:00 +20°C° 0 mm 2 mps 754 mmHg 77%
    23:00 +20°C° 0 mm 2 mps 754 mmHg 79%

    Tomorrow, 24 November, Friday

    Time Temperature Precipitation Wind Pressure Humidity
    00:00 +19°C° 0 mm 2 mps 754 mmHg 81%
    01:00 +19°C° 0 mm 2 mps 754 mmHg 82%
    02:00 +19°C° 0 mm 2 mps 754 mmHg 83%
    03:00 +18°C° 0 mm 2 mps 754 mmHg 84%
    04:00 +19°C° 0 mm 2 mps 754 mmHg 81%
    05:00 +19°C° 0 mm 2 mps 755 mmHg 79%
    06:00 +20°C° 0 mm 2 mps 755 mmHg 76%
    07:00 +23°C° 0 mm 2 mps 755 mmHg 69%
    08:00 +24°C° 0 mm 2 mps 755 mmHg 62%
    09:00 +26°C° 0 mm 2 mps 756 mmHg 55%
    10:00 +27°C° 0.1 mm 2 mps 755 mmHg 52%
    11:00 +28°C° 0.1 mm 2 mps 755 mmHg 49%
    12:00 +29°C° 0.1 mm 2 mps 755 mmHg 46%
    13:00 +29°C° 0.3 mm 3 mps 754 mmHg 47%
    14:00 +29°C° 0.3 mm 3 mps 754 mmHg 49%
    15:00 +28°C° 0.3 mm 3 mps 754 mmHg 50%
    16:00 +27°C° 0.1 mm 4 mps 754 mmHg 56%
    17:00 +25°C° 0.1 mm 4 mps 754 mmHg 62%
    18:00 +23°C° 0.1 mm 5 mps 754 mmHg 68%
    19:00 +22°C° 0 mm 5 mps 754 mmHg 71%
    20:00 +21°C° 0 mm 4 mps 755 mmHg 75%
    21:00 +20°C° 0 mm 4 mps 755 mmHg 78%
    22:00 +19°C° 0 mm 4 mps 755 mmHg 80%
    23:00 +19°C° 0 mm 4 mps 755 mmHg 83%

    Day after tomorrow, 25 November, Saturday

    Time Temperature Precipitation Wind Pressure Humidity
    00:00 +18°C° 0 mm 4 mps 754 mmHg 85%
    01:00 +18°C° 0 mm 3 mps 754 mmHg 86%
    02:00 +18°C° 0 mm 3 mps 754 mmHg 88%
    03:00 +18°C° 0 mm 3 mps 754 mmHg 90%
    04:00 +18°C° 0 mm 3 mps 754 mmHg 88%
    05:00 +18°C° 0 mm 3 mps 754 mmHg 87%
    06:00 +19°C° 0 mm 2 mps 755 mmHg 86%
    07:00 +20°C° 0 mm 3 mps 755 mmHg 80%
    08:00 +22°C° 0 mm 3 mps 755 mmHg 74%
    09:00 +24°C° 0 mm 3 mps 755 mmHg 67%
    10:00 +25°C° 0.2 mm 3 mps 755 mmHg 63%
    11:00 +26°C° 0.2 mm 3 mps 754 mmHg 60%
    12:00 +27°C° 0.2 mm 4 mps 754 mmHg 56%
    13:00 +27°C° 0.1 mm 4 mps 754 mmHg 55%
    14:00 +27°C° 0.1 mm 4 mps 754 mmHg 55%
    15:00 +27°C° 0.1 mm 5 mps 754 mmHg 55%
    16:00 +26°C° 0 mm 5 mps 754 mmHg 59%
    17:00 +23°C° 0 mm 5 mps 754 mmHg 64%
    18:00 +22°C° 0 mm 5 mps 755 mmHg 68%
    19:00 +21°C° 0 mm 4 mps 755 mmHg 73%
    20:00 +20°C° 0 mm 4 mps 756 mmHg 78%
    21:00 +19°C° 0 mm 3 mps 756 mmHg 83%
    22:00 +18°C° 0 mm 3 mps 756 mmHg 85%
    23:00 +18°C° 0 mm 3 mps 756 mmHg 86%

    26 November, Sunday

    Time Temperature Precipitation Wind Pressure Humidity
    00:00 +18°C° 0 mm 3 mps 755 mmHg 88%
    01:00 +17°C° 0 mm 3 mps 755 mmHg 89%
    02:00 +17°C° 0 mm 3 mps 756 mmHg 89%
    03:00 +17°C° 0 mm 2 mps 756 mmHg 90%
    04:00 +17°C° 0 mm 3 mps 756 mmHg 88%
    05:00 +17°C° 0 mm 3 mps 756 mmHg 85%
    06:00 +18°C° 0 mm 3 mps 757 mmHg 82%
    07:00 +19°C° 0 mm 3 mps 757 mmHg 74%
    08:00 +21°C° 0 mm 4 mps 757 mmHg 66%
    09:00 +22°C° 0 mm 4 mps 758 mmHg 58%
    10:00 +23°C° 0 mm 4 mps 758 mmHg 53%
    11:00 +25°C° 0 mm 5 mps 757 mmHg 49%
    12:00 +26°C° 0 mm 5 mps 757 mmHg 45%
    13:00 +26°C° 0 mm 6 mps 757 mmHg 45%
    14:00 +26°C° 0 mm 6 mps 757 mmHg 44%
    15:00 +24°C° 0 mm 6 mps 757 mmHg 44%
    16:00 +23°C° 0 mm 6 mps 757 mmHg 49%
    17:00 +22°C° 0 mm 6 mps 757 mmHg 54%
    18:00 +20°C° 0 mm 6 mps 758 mmHg 59%
    19:00 +19°C° 0 mm 5 mps 758 mmHg 66%
    20:00 +17°C° 0 mm 5 mps 759 mmHg 72%
    21:00 +15°C° 0 mm 5 mps 759 mmHg 79%
    22:00 +15°C° 0 mm 5 mps 759 mmHg 80%
    23:00 +15°C° 0 mm 4 mps 758 mmHg 82%

    27 November, Monday

    Time Temperature Precipitation Wind Pressure Humidity
    00:00 +14°C° 0 mm 4 mps 758 mmHg 83%
    01:00 +14°C° 0 mm 4 mps 758 mmHg 84%
    02:00 +14°C° 0 mm 4 mps 758 mmHg 85%
    03:00 +13°C° 0 mm 4 mps 758 mmHg 85%
    04:00 +14°C° 0 mm 4 mps 758 mmHg 81%
    05:00 +14°C° 0 mm 4 mps 758 mmHg 78%
    06:00 +14°C° 0 mm 4 mps 759 mmHg 74%
    07:00 +18°C° 0 mm 4 mps 759 mmHg 62%
    08:00 +20°C° 0 mm 3 mps 759 mmHg 51%
    09:00 +22°C° 0 mm 3 mps 759 mmHg 40%
    10:00 +25°C° 0 mm 3 mps 758 mmHg 35%
    11:00 +27°C° 0 mm 3 mps 758 mmHg 30%
    12:00 +29°C° 0 mm 3 mps 758 mmHg 25%
    13:00 +29°C° 0 mm 4 mps 757 mmHg 26%
    14:00 +29°C° 0 mm 5 mps 757 mmHg 27%
    15:00 +29°C° 0 mm 6 mps 757 mmHg 28%
    16:00 +27°C° 0 mm 6 mps 757 mmHg 36%
    17:00 +24°C° 0 mm 6 mps 757 mmHg 44%
    18:00 +22°C° 0 mm 6 mps 757 mmHg 52%
    19:00 +21°C° 0 mm 6 mps 757 mmHg 57%
    20:00 +20°C° 0 mm 5 mps 757 mmHg 61%
    21:00 +19°C° 0 mm 5 mps 758 mmHg 66%
    22:00 +19°C° 0 mm 5 mps 757 mmHg 67%
    23:00 +19°C° 0 mm 4 mps 757 mmHg 67%

    28 November, Tuesday

    Time Temperature Precipitation Wind Pressure Humidity
    00:00 +19°C° 0 mm 4 mps 757 mmHg 68%
    01:00 +19°C° 0 mm 4 mps 757 mmHg 69%
    02:00 +19°C° 0 mm 4 mps 757 mmHg 70%
    03:00 +19°C° 0 mm 4 mps 757 mmHg 71%
    04:00 +20°C° 0 mm 4 mps 757 mmHg 67%
    05:00 +20°C° 0 mm 4 mps 757 mmHg 64%
    06:00 +21°C° 0 mm 4 mps 757 mmHg 60%
    07:00 +25°C° 0 mm 4 mps 758 mmHg 51%
    08:00 +27°C° 0 mm 4 mps 758 mmHg 41%
    09:00 +30°C° 0 mm 3 mps 758 mmHg 31%
    10:00 +31°C° 0 mm 3 mps 757 mmHg 28%
    11:00 +34°C° 0 mm 3 mps 757 mmHg 25%
    12:00 +36°C° 0 mm 2 mps 756 mmHg 21%
    13:00 +36°C° 0 mm 3 mps 756 mmHg 21%
    14:00 +36°C° 0 mm 3 mps 756 mmHg 21%
    15:00 +36°C° 0 mm 4 mps 755 mmHg 21%
    16:00 +35°C° 0 mm 4 mps 756 mmHg 23%
    17:00 +33°C° 0 mm 4 mps 756 mmHg 25%
    18:00 +32°C° 0 mm 4 mps 756 mmHg 28%
    19:00 +29°C° 0 mm 4 mps 756 mmHg 30%
    20:00 +28°C° 0 mm 4 mps 756 mmHg 33%
    21:00 +26°C° 0 mm 4 mps 756 mmHg 36%
    22:00 +26°C° 0 mm 4 mps 756 mmHg 35%
    23:00 +25°C° 0 mm 4 mps 756 mmHg 34%
    Show more